FW3143 Weather Reports


time (UTC)temp
C
wind
direction
speed
KPH
gust
KPH
rain 1hr
cm
rain 24hr
cm
rain mn
cm
humidity
%
barometer
mb
20260504214528 12 335 25.7 32.2 0.00 0.00 0.00 80 1011.8
20260504214009 12 128 25.7 33.8 0.00 0.00 0.00 80 1011.9
20260504213507 12 335 25.7 35.4 0.00 0.00 0.00 80 1011.9
20260504213022 12 115 27.4 35.4 0.00 0.00 0.00 80 1011.9
20260504212508 12 130 27.4 33.8 0.00 0.00 0.00 79 1011.9
20260504212008 12 117 25.7 33.8 0.00 0.00 0.00 79 1011.9
20260504211526 12 126 24.1 32.2 0.00 0.00 0.00 79 1011.9
20260504211008 13 130 22.5 33.8 0.00 0.00 0.00 79 1011.8
20260504210512 13 120 24.1 37.0 0.00 0.00 0.00 79 1011.8
20260504210029 13 112 27.4 37.0 0.00 0.00 0.00 79 1011.8
20260504205504 13 123 25.7 35.4 0.00 0.00 0.00 78 1011.9
20260504205006 13 335 27.4 35.4 0.00 0.00 0.00 78 1011.8
20260504204531 13 335 24.1 35.4 0.00 0.00 0.00 77 1011.9
20260504204010 13 335 24.1 33.8 0.00 0.00 0.00 77 1011.9
20260504203507 13 335 22.5 33.8 0.00 0.00 0.00 77 1011.9
20260504203029 13 335 24.1 35.4 0.00 0.00 0.00 77 1012.0
20260504202513 13 146 22.5 35.4 0.00 0.00 0.00 77 1011.9
20260504202010 13 335 25.7 35.4 0.00 0.00 0.00 77 1012.0
20260504201518 13 125 27.4 35.4 0.00 0.00 0.00 77 1012.0
20260504201004 13 335 27.4 33.8 0.00 0.00 0.00 77 1012.1
20260504200504 13 128 25.7 33.8 0.00 0.00 0.00 77 1012.1
20260504200008 13 335 25.7 33.8 0.00 0.00 0.00 77 1012.1
20260504195503 13 335 25.7 32.2 0.00 0.00 0.00 77 1012.2
20260504195004 13 119 24.1 32.2 0.00 0.00 0.00 77 1012.2
20260504194508 13 335 24.1 32.2 0.00 0.00 0.00 77 1012.3
20260504194005 13 335 24.1 30.6 0.00 0.00 0.00 76 1012.4
20260504193505 13 123 22.5 30.6 0.00 0.00 0.00 77 1012.4
20260504193010 13 123 24.1 32.2 0.00 0.00 0.00 76 1012.4
20260504192505 13 128 24.1 32.2 0.00 0.00 0.00 76 1012.4
20260504192004 13 115 24.1 30.6 0.00 0.00 0.00 76 1012.5
20260504191514 13 107 24.1 32.2 0.00 0.00 0.00 76 1012.6
20260504191003 13 335 24.1 32.2 0.00 0.00 0.00 76 1012.8
20260504190503 13 335 24.1 35.4 0.00 0.00 0.00 75 1012.8
20260504190012 13 136 25.7 35.4 0.00 0.00 0.00 75 1012.8
20260504185503 13 113 25.7 35.4 0.00 0.00 0.00 74 1012.8
20260504185004 13 136 24.1 35.4 0.00 0.00 0.00 74 1012.9
20260504184514 13 335 24.1 37.0 0.00 0.00 0.00 74 1012.9
20260504184004 13 147 27.4 37.0 0.00 0.00 0.00 74 1013.0
20260504183505 13 335 24.1 35.4 0.00 0.00 0.00 75 1013.0
20260504183014 13 153 25.7 35.4 0.00 0.00 0.00 75 1013.0
20260504182505 13 335 20.9 33.8 0.00 0.00 0.00 75 1013.1
20260504182007 13 149 24.1 35.4 0.00 0.00 0.00 75 1013.1
20260504181515 13 335 22.5 35.4 0.00 0.00 0.00 75 1013.1
20260504181004 13 335 22.5 33.8 0.00 0.00 0.00 75 1013.1
20260504180506 13 335 22.5 37.0 0.00 0.00 0.00 75 1013.2
20260504180016 13 153 25.7 37.0 0.00 0.00 0.00 75 1013.2
20260504175503 13 335 25.7 33.8 0.00 0.00 0.00 75 1013.3
20260504175006 13 132 22.5 37.0 0.00 0.00 0.00 76 1013.3
20260504174514 13 335 25.7 37.0 0.00 0.00 0.00 76 1013.3
20260504174006 13 134 27.4 37.0 0.00 0.00 0.00 77 1013.4
20260504173506 13 335 25.7 37.0 0.00 0.00 0.00 77 1013.4
20260504173015 13 152 27.4 40.2 0.00 0.00 0.00 77 1013.4
20260504172505 13 335 29.0 40.2 0.00 0.00 0.00 77 1013.5
20260504172006 13 335 29.0 38.6 0.00 0.00 0.00 77 1013.5
20260504171516 13 335 29.0 38.6 0.00 0.00 0.00 77 1013.5
20260504171004 13 335 25.7 35.4 0.00 0.00 0.00 77 1013.6
20260504170503 13 335 25.7 35.4 0.00 0.00 0.00 77 1013.7
20260504151004 12 152 16.1 25.7 0.00 0.00 0.00 77 1015.1
20260504150510 12 151 16.1 22.5 0.00 0.00 0.00 77 1015.2
20260504141007 12 158 14.5 24.1 0.00 0.00 0.00 77 1015.5
20260504140505 12 147 14.5 24.1 0.00 0.00 0.00 76 1015.5
20260504130504 12 184 11.3 20.9 0.00 0.00 0.00 73 1015.8
20260504110505 10 164 14.5 25.7 0.00 0.00 0.00 75 1016.0
20260504100508 10 173 19.3 30.6 0.00 0.00 0.00 75 1015.7
20260504081538 10 178 12.9 19.3 0.00 0.00 0.00 74 1015.1
20260504081002 10 177 12.9 19.3 0.00 0.00 0.00 73 1015.1
20260504080503 10 182 12.9 17.7 0.00 0.00 0.00 72 1015.0
20260504050504 10 198 9.7 20.9 0.00 0.00 0.00 73 1014.3
20260504050020 10 180 9.7 20.9 0.00 0.00 0.00 73 1014.3
20260504045507 10 335 11.3 19.3 0.00 0.00 0.00 72 1014.3
20260504045009 10 169 9.7 19.3 0.00 0.00 0.00 72 1014.2
20260504044524 10 335 9.7 20.9 0.00 0.00 0.00 72 1014.2
20260504044007 10 188 11.3 20.9 0.00 0.00 0.00 72 1014.2
20260504043503 10 180 11.3 19.3 0.00 0.00 0.00 73 1014.2
20260504043031 10 188 11.3 19.3 0.00 0.00 0.00 73 1014.1
20260504042507 10 184 11.3 19.3 0.00 0.00 0.00 74 1014.2
20260504042009 10 186 9.7 19.3 0.00 0.00 0.00 74 1014.2
20260504041524 10 184 11.3 19.3 0.00 0.00 0.00 74 1014.1
20260504041013 10 196 9.7 17.7 0.00 0.00 0.00 74 1014.1
20260504040513 10 196 11.3 17.7 0.00 0.00 0.00 74 1014.0
20260504040028 10 335 9.7 17.7 0.00 0.00 0.00 74 1014.0
20260504035504 10 182 9.7 17.7 0.00 0.00 0.00 73 1014.0
20260504035004 10 190 9.7 17.7 0.00 0.00 0.00 73 1014.0
20260504034519 10 177 11.3 19.3 0.00 0.00 0.00 73 1014.0
20260504034004 10 176 11.3 19.3 0.00 0.00 0.00 73 1014.0
20260504033504 10 175 9.7 19.3 0.00 0.00 0.00 72 1013.9
20260504033023 10 183 9.7 19.3 0.00 0.00 0.00 72 1013.9
20260504032509 10 200 6.4 16.1 0.00 0.00 0.00 72 1013.8
20260504032013 10 335 6.4 14.5 0.00 0.00 0.00 72 1013.9
20260504031531 10 204 6.4 12.9 0.00 0.00 0.00 72 1013.9
20260504031005 10 202 4.8 16.1 0.00 0.00 0.00 73 1013.9
20260504030503 10 335 8.0 17.7 0.00 0.00 0.00 73 1013.9
20260504030026 10 335 6.4 20.9 0.00 0.00 0.00 73 1013.9
20260504025508 10 183 9.7 20.9 0.00 0.00 0.00 73 1014.0
20260504025006 10 164 12.9 19.3 0.00 0.00 0.00 73 1014.0
20260504024530 10 176 11.3 17.7 0.00 0.00 0.00 73 1013.9
20260504024008 11 335 9.7 17.7 0.00 0.00 0.00 72 1013.9
20260504023508 11 175 11.3 16.1 0.00 0.00 0.00 72 1013.9
20260504023014 11 184 9.7 16.1 0.00 0.00 0.00 72 1013.9
20260504022506 11 189 8.0 16.1 0.00 0.00 0.00 72 1013.9
20260504022007 11 173 8.0 14.5 0.00 0.00 0.00 71 1013.9
20260504021524 11 190 6.4 16.1 0.00 0.00 0.00 70 1013.9
20260504021007 11 196 8.0 16.1 0.00 0.00 0.00 70 1013.9
20260504020508 11 204 8.0 16.1 0.00 0.00 0.00 71 1013.9
20260504020028 11 204 9.7 16.1 0.00 0.00 0.00 72 1013.8
20260504015507 11 184 9.7 16.1 0.00 0.00 0.00 73 1013.9
20260504015011 11 163 8.0 16.1 0.00 0.00 0.00 71 1013.8
20260504014524 11 181 8.0 14.5 0.00 0.00 0.00 70 1013.8
20260504014007 11 203 6.4 14.5 0.00 0.00 0.00 67 1013.7
20260504013507 11 198 8.0 17.7 0.00 0.00 0.00 64 1013.7
20260504013034 11 189 9.7 17.7 0.00 0.00 0.00 66 1013.7
20260504012508 11 194 8.0 16.1 0.00 0.00 0.00 63 1013.6
20260504012009 11 195 6.4 14.5 0.00 0.00 0.00 64 1013.6
20260504011528 11 202 6.4 16.1 0.00 0.00 0.00 63 1013.5
20260504011010 12 190 8.0 16.1 0.00 0.00 0.00 61 1013.5
20260504010508 12 191 8.0 16.1 0.00 0.00 0.00 59 1013.4
20260504010021 12 335 6.4 14.5 0.00 0.00 0.00 58 1013.3
20260504005510 12 200 6.4 16.1 0.00 0.00 0.00 54 1013.2
20260504005011 12 197 8.0 16.1 0.00 0.00 0.00 53 1013.2
20260504004532 12 178 8.0 12.9 0.00 0.00 0.00 50 1013.2
20260504004008 12 216 4.8 9.7 0.00 0.00 0.00 43 1013.1
20260504003508 12 335 4.8 11.3 0.00 0.00 0.00 44 1013.0
20260504003029 13 335 6.4 11.3 0.00 0.00 0.00 45 1012.9
20260504002510 13 229 4.8 11.3 0.00 0.00 0.00 45 1012.8
20260504002007 13 229 6.4 12.9 0.00 0.00 0.00 42 1012.7
20260504001524 13 335 8.0 14.5 0.00 0.00 0.00 41 1012.5
20260504001008 13 335 8.0 14.5 0.00 0.00 0.00 41 1012.5
20260504000510 13 335 6.4 16.1 0.00 0.00 0.00 40 1012.5
20260504000027 13 240 8.0 16.1 0.00 0.00 0.00 39 1012.5
20260503235510 14 335 6.4 19.3 0.00 0.00 0.00 39 1012.4
20260503235010 14 335 6.4 22.5 0.00 0.00 0.00 36 1012.4
20260503234528 14 288 12.9 22.5 0.00 0.00 0.00 35 1012.3
20260503234009 14 335 11.3 20.9 0.00 0.00 0.00 36 1012.2
20260503233507 15 335 14.5 29.0 0.00 0.00 0.00 35 1012.2
20260503233026 15 246 11.3 29.0 0.00 0.00 0.00 35 1012.1
20260503232509 15 271 16.1 29.0 0.00 0.00 0.00 35 1012.0
20260503232012 15 335 12.9 24.1 0.00 0.00 0.00 34 1012.0
20260503231529 15 254 14.5 24.1 0.00 0.00 0.00 31 1012.0
20260503231006 15 335 11.3 22.5 0.00 0.00 0.00 33 1011.9
20260503230509 15 274 14.5 32.2 0.00 0.00 0.00 32 1011.9
20260503230020 15 257 14.5 32.2 0.00 0.00 0.00 31 1011.9
20260503225503 15 255 20.9 30.6 0.00 0.00 0.00 31 1011.9
20260503225003 15 335 19.3 30.6 0.00 0.00 0.00 32 1011.7
20260503224504 15 335 14.5 35.4 0.00 0.00 0.00 32 1011.6
20260503224003 15 258 12.9 35.4 0.00 0.00 0.00 32 1011.6
20260503223504 15 246 22.5 32.2 0.00 0.00 0.00 30 1011.6
20260503223013 15 260 19.3 35.4 0.00 0.00 0.00 31 1011.6
20260503222506 15 335 22.5 37.0 0.00 0.00 0.00 30 1011.6
20260503222008 16 234 19.3 37.0 0.00 0.00 0.00 30 1011.7
20260503221505 16 261 17.7 30.6 0.00 0.00 0.00 31 1011.5
20260503221005 16 335 12.9 30.6 0.00 0.00 0.00 33 1011.5
20260503220503 16 335 19.3 30.6 0.00 0.00 0.00 31 1011.5
20260503220007 15 335 16.1 41.8 0.00 0.00 0.00 31 1011.5
20260503215503 15 335 24.1 43.5 0.00 0.00 0.00 30 1011.5
20260503215006 15 335 25.7 43.5 0.00 0.00 0.00 32 1011.5